| time (UTC) | temp F | wind direction | speed knots | gust knots | rain 1hr in | rain 24hr in | rain mn in | humidity % | barometer mb |
| 20260503032220 | 65 | 0 | 0.0 | 0.0 | 0.00 | 0.00 | 0.00 | 74 | |
| 20260503031150 | 66 | 0 | 0.0 | 0.0 | 0.00 | 0.00 | 0.00 | 73 | |
| 20260503030120 | 67 | 0 | 0.0 | 0.0 | 0.00 | 0.00 | 0.00 | 74 | |
| 20260503025050 | 67 | 0 | 1.7 | 0.0 | 0.00 | 0.00 | 0.00 | 71 | |
| 20260503024020 | 68 | 0 | 0.9 | 0.0 | 0.00 | 0.00 | 0.00 | 68 | |
| 20260503023125 | 69 | 0 | 0.9 | 0.0 | 0.00 | 0.00 | 0.00 | 67 | |
| 20260503023020 | 69 | 0 | 0.9 | 0.0 | 0.00 | 0.00 | 0.00 | 67 | |
| 20260503021950 | 70 | 0 | 1.7 | 0.0 | 0.00 | 0.00 | 0.00 | 65 | |
| 20260503020920 | 70 | 0 | 0.0 | 0.0 | 0.00 | 0.00 | 0.00 | 64 | |
| 20260503015850 | 71 | 0 | 0.9 | 0.0 | 0.00 | 0.00 | 0.00 | 63 | |
| 20260503014850 | 72 | 0 | 0.9 | 0.0 | 0.00 | 0.00 | 0.00 | 62 | |
| 20260503013820 | 72 | 0 | 0.0 | 0.0 | 0.00 | 0.00 | 0.00 | 61 | |
| 20260503013230 | 72 | 0 | 0.9 | 0.0 | 0.00 | 0.00 | 0.00 | 60 | |
| 20260503012750 | 72 | 0 | 0.9 | 0.0 | 0.00 | 0.00 | 0.00 | 60 | |
| 20260503011720 | 73 | 0 | 0.0 | 0.0 | 0.00 | 0.00 | 0.00 | 59 | |
| 20260503010650 | 73 | 0 | 0.9 | 0.0 | 0.00 | 0.00 | 0.00 | 59 | |
| 20260503005620 | 73 | 0 | 0.9 | 0.0 | 0.00 | 0.00 | 0.00 | 58 | |
| 20260503004550 | 74 | 0 | 0.9 | 0.0 | 0.00 | 0.00 | 0.00 | 57 | |
| 20260503003812 | 74 | 0 | 3.5 | 0.0 | 0.00 | 0.00 | 0.00 | 56 | |
| 20260503003520 | 74 | 0 | 3.5 | 0.0 | 0.00 | 0.00 | 0.00 | 56 | |
| 20260503002553 | 75 | 0 | 0.9 | 0.0 | 0.00 | 0.00 | 0.00 | 57 | |
| 20260503002450 | 75 | 0 | 0.9 | 0.0 | 0.00 | 0.00 | 0.00 | 57 | |
| 20260503001420 | 74 | 0 | 2.6 | 0.0 | 0.00 | 0.00 | 0.00 | 56 | |
| 20260503000350 | 76 | 0 | 0.9 | 0.0 | 0.00 | 0.00 | 0.00 | 54 | |
| 20260502235320 | 77 | 0 | 1.7 | 0.0 | 0.00 | 0.00 | 0.00 | 54 | |
| 20260502234320 | 77 | 0 | 1.7 | 0.0 | 0.00 | 0.00 | 0.00 | 53 | |
| 20260502233250 | 78 | 0 | 1.7 | 0.0 | 0.00 | 0.00 | 0.00 | 51 | |
| 20260502232220 | 79 | 0 | 2.6 | 0.0 | 0.00 | 0.00 | 0.00 | 50 | |
| 20260502231150 | 80 | 0 | 2.6 | 0.0 | 0.00 | 0.00 | 0.00 | 49 | |
| 20260502230403 | 79 | 0 | 2.6 | 0.0 | 0.00 | 0.00 | 0.00 | 49 | |
| 20260502230150 | 79 | 0 | 2.6 | 0.0 | 0.00 | 0.00 | 0.00 | 49 | |
| 20260502225120 | 81 | 0 | 2.6 | 0.0 | 0.00 | 0.00 | 0.00 | 48 | |
| 20260502224050 | 80 | 0 | 2.6 | 0.0 | 0.00 | 0.00 | 0.00 | 47 | |
| 20260502223050 | 79 | 0 | 3.5 | 0.0 | 0.00 | 0.00 | 0.00 | 46 | |
| 20260502222020 | 79 | 0 | 1.7 | 0.0 | 0.00 | 0.00 | 0.00 | 45 | |
| 20260502220950 | 77 | 0 | 1.7 | 0.0 | 0.00 | 0.00 | 0.00 | 47 | |
| 20260502215920 | 78 | 0 | 2.6 | 0.0 | 0.00 | 0.00 | 0.00 | 46 | |
| 20260502214920 | 77 | 0 | 0.9 | 0.0 | 0.00 | 0.00 | 0.00 | 44 | |
| 20260502213850 | 77 | 0 | 3.5 | 0.0 | 0.00 | 0.00 | 0.00 | 43 | |
| 20260502212820 | 79 | 0 | 3.5 | 0.0 | 0.00 | 0.00 | 0.00 | 41 | |
| 20260502211750 | 79 | 0 | 1.7 | 0.0 | 0.00 | 0.00 | 0.00 | 42 | |
| 20260502210720 | 79 | 0 | 2.6 | 0.0 | 0.00 | 0.00 | 0.00 | 41 | |
| 20260502205650 | 78 | 0 | 2.6 | 0.0 | 0.00 | 0.00 | 0.00 | 41 | |
| 20260502204620 | 77 | 0 | 1.7 | 0.0 | 0.00 | 0.00 | 0.00 | 44 | |
| 20260502203550 | 76 | 0 | 1.7 | 0.0 | 0.00 | 0.00 | 0.00 | 40 | |
| 20260502202520 | 77 | 0 | 4.3 | 0.0 | 0.00 | 0.00 | 0.00 | 44 | |
| 20260502201520 | 76 | 0 | 3.5 | 0.0 | 0.00 | 0.00 | 0.00 | 42 | |
| 20260502200450 | 75 | 0 | 0.0 | 0.0 | 0.00 | 0.00 | 0.00 | 42 | |
| 20260502195420 | 76 | 0 | 1.7 | 0.0 | 0.00 | 0.00 | 0.00 | 44 | |
| 20260502194420 | 75 | 0 | 2.6 | 0.0 | 0.00 | 0.00 | 0.00 | 47 | |
| 20260502193350 | 74 | 0 | 0.0 | 0.0 | 0.00 | 0.00 | 0.00 | 49 | |
| 20260502192320 | 73 | 0 | 0.9 | 0.0 | 0.00 | 0.00 | 0.00 | 56 | |
| 20260502191250 | 70 | 0 | 0.9 | 0.0 | 0.00 | 0.00 | 0.00 | 60 | |
| 20260502190309 | 68 | 0 | 3.5 | 0.0 | 0.00 | 0.00 | 0.00 | 62 | |
| 20260502190220 | 68 | 0 | 3.5 | 0.0 | 0.00 | 0.00 | 0.00 | 62 | |
| 20260502185220 | 67 | 0 | 2.6 | 0.0 | 0.00 | 0.00 | 0.00 | 64 | |
| 20260502184150 | 67 | 0 | 2.6 | 0.0 | 0.00 | 0.00 | 0.00 | 66 | |
| 20260502183150 | 66 | 0 | 0.9 | 0.0 | 0.00 | 0.00 | 0.00 | 69 | |
| 20260502182120 | 66 | 0 | 2.6 | 0.0 | 0.00 | 0.00 | 0.00 | 68 | |
| 20260502181050 | 68 | 0 | 2.6 | 0.0 | 0.00 | 0.00 | 0.00 | 67 | |
| 20260502163620 | 72 | 0 | 1.7 | 0.0 | 0.00 | 0.00 | 0.00 | 59 | |
| 20260502162550 | 72 | 0 | 1.7 | 0.0 | 0.00 | 0.00 | 0.00 | 61 | |
| 20260502161520 | 70 | 0 | 0.0 | 0.0 | 0.00 | 0.00 | 0.00 | 63 | |
| 20260502160520 | 70 | 0 | 0.9 | 0.0 | 0.00 | 0.00 | 0.00 | 64 | |
| 20260502151420 | 63 | 0 | 0.0 | 0.0 | 0.00 | 0.00 | 0.00 | 80 | |
| 20260502150420 | 61 | 0 | 0.0 | 0.0 | 0.00 | 0.00 | 0.00 | 94 | |
| 20260502130120 | 54 | 0 | 0.0 | 0.0 | 0.00 | 0.00 | 0.00 | 97 | |
| 20260502123020 | 54 | 0 | 0.9 | 0.0 | 0.00 | 0.00 | 0.00 | 95 | |
| 20260502121950 | 53 | 0 | 0.0 | 0.0 | 0.00 | 0.00 | 0.00 | 99 | |
| 20260502120950 | 53 | 0 | 0.0 | 0.0 | 0.00 | 0.00 | 0.00 | 99 | |
| 20260502114920 | 53 | 0 | 0.0 | 0.0 | 0.00 | 0.00 | 0.00 | 99 | |
| 20260502113850 | 53 | 0 | 0.0 | 0.0 | 0.00 | 0.00 | 0.00 | 99 | |
| 20260502112850 | 54 | 0 | 0.0 | 0.0 | 0.00 | 0.00 | 0.00 | 99 | |
| 20260502111820 | 54 | 0 | 0.0 | 0.0 | 0.00 | 0.00 | 0.00 | 99 | |
| 20260502110750 | 54 | 0 | 0.0 | 0.0 | 0.00 | 0.00 | 0.00 | 99 | |
| 20260502105750 | 54 | 0 | 0.0 | 0.0 | 0.00 | 0.00 | 0.00 | 99 | |
| 20260502104720 | 54 | 0 | 0.0 | 0.0 | 0.00 | 0.00 | 0.00 | 98 | |
| 20260502103650 | 55 | 0 | 0.0 | 0.0 | 0.00 | 0.00 | 0.00 | 98 | |
| 20260502102650 | 55 | 0 | 0.0 | 0.0 | 0.00 | 0.00 | 0.00 | 99 | |
| 20260502101620 | 55 | 0 | 0.0 | 0.0 | 0.00 | 0.00 | 0.00 | 99 | |
| 20260502100620 | 55 | 0 | 0.0 | 0.0 | 0.00 | 0.00 | 0.00 | 99 | |
| 20260502091520 | 57 | 0 | 0.0 | 0.0 | 0.00 | 0.00 | 0.00 | 97 | |
| 20260502090450 | 57 | 0 | 0.0 | 0.0 | 0.00 | 0.00 | 0.00 | 97 | |
| 20260502071120 | 57 | 0 | 0.0 | 0.0 | 0.00 | 0.00 | 0.00 | 98 | |
| 20260502070050 | 57 | 0 | 0.0 | 0.0 | 0.00 | 0.00 | 0.00 | 97 | |
| 20260502065050 | 58 | 0 | 0.0 | 0.0 | 0.00 | 0.00 | 0.00 | 96 | |
| 20260502064020 | 58 | 0 | 0.0 | 0.0 | 0.00 | 0.00 | 0.00 | 96 | |
| 20260502063020 | 58 | 0 | 0.0 | 0.0 | 0.00 | 0.00 | 0.00 | 96 | |
| 20260502062020 | 59 | 0 | 0.9 | 0.0 | 0.00 | 0.00 | 0.00 | 96 | |
| 20260502061020 | 58 | 0 | 0.0 | 0.0 | 0.00 | 0.00 | 0.00 | 97 | |
| 20260502060020 | 58 | 0 | 0.0 | 0.0 | 0.00 | 0.00 | 0.00 | 96 | |
| 20260502054950 | 59 | 0 | 0.0 | 0.0 | 0.00 | 0.00 | 0.00 | 96 | |
| 20260502053920 | 59 | 0 | 0.0 | 0.0 | 0.00 | 0.00 | 0.00 | 94 | |
| 20260502052850 | 59 | 0 | 0.0 | 0.0 | 0.00 | 0.00 | 0.00 | 93 | |
| 20260502051820 | 60 | 0 | 0.0 | 0.0 | 0.00 | 0.00 | 0.00 | 93 | |
| 20260502050820 | 60 | 0 | 0.0 | 0.0 | 0.00 | 0.00 | 0.00 | 93 | |
| 20260502045820 | 61 | 0 | 0.0 | 0.0 | 0.00 | 0.00 | 0.00 | 91 | |
| 20260502044750 | 61 | 0 | 0.0 | 0.0 | 0.00 | 0.00 | 0.00 | 89 | |
| 20260502043750 | 62 | 0 | 0.0 | 0.0 | 0.00 | 0.00 | 0.00 | 87 | |
| 20260502042750 | 62 | 0 | 0.0 | 0.0 | 0.00 | 0.00 | 0.00 | 87 | |
| 20260502041720 | 63 | 0 | 0.0 | 0.0 | 0.00 | 0.00 | 0.00 | 84 | |
| 20260502040720 | 64 | 0 | 0.0 | 0.0 | 0.00 | 0.00 | 0.00 | 83 | |
| 20260502035650 | 64 | 0 | 0.0 | 0.0 | 0.00 | 0.00 | 0.00 | 83 | |
| 20260502034650 | 65 | 0 | 0.0 | 0.0 | 0.00 | 0.00 | 0.00 | 80 | |
| 20260502033620 | 66 | 0 | 0.0 | 0.0 | 0.00 | 0.00 | 0.00 | 79 |